Theta_e
347 344 344 344 344 344 344 344 343 342 342 342 341 342 342 340 334 330 330 331 332 334 333 333 333 339 344 339 337 339 335 333 341 342 342 336 342 340 340 344 345 345 338
349 346 344 342 342 340 339 339 338 337 337 339 342 341 339 333 331 333 337 335 332 328 332 328 327 329 337 336 335 333 333 331 339 342 341 334 337 337 338 343 341 341 337
349 347 344 340 335 331 330 331 332 333 334 336 334 332 332 337 338 339 335 331 342 340 329 324 325 328 329 327 331 334 338 340 341 342 347 348 346 342 340 337 339 339 332
349 349 346 332 331 330 332 336 343 342 341 342 341 341 341 342 339 335 329 339 337 337 330 323 325 336 337 328 332 338 337 335 339 345 347 346 345 339 339 336 335 334 337
349 347 339 333 332 333 334 334 339 343 339 341 341 342 343 343 338 330 340 340 338 333 336 329 326 328 333 334 331 330 332 333 337 345 345 346 345 340 339 337 337 341 340
348 346 331 332 334 334 337 341 341 340 343 342 343 342 342 343 342 339 338 333 336 330 337 338 334 336 338 339 335 334 334 333 344 344 344 345 347 338 334 336 337 338 337
345 345 337 340 345 337 340 336 333 331 332 333 343 343 343 341 339 341 340 336 338 332 338 339 340 340 339 337 337 337 335 336 342 342 346 346 343 337 337 335 338 337 326
344 343 344 342 338 341 333 335 340 338 341 334 338 338 338 339 343 340 338 338 339 338 333 337 339 339 339 337 336 335 332 340 343 346 345 344 335 334 337 336 337 331 323
342 344 345 346 340 333 332 342 344 343 342 340 343 342 342 342 341 341 336 335 335 338 335 335 339 340 339 337 337 336 335 337 342 343 343 343 339 337 336 335 336 332 331
342 344 345 347 350 346 342 340 341 343 342 337 339 342 342 341 340 339 340 339 338 337 337 335 338 338 339 338 338 339 338 341 340 342 344 340 338 336 335 334 335 336 333
343 343 344 345 351 348 346 344 344 342 343 340 342 343 346 349 348 349 340 339 339 339 338 336 338 339 337 336 337 340 343 341 340 341 343 333 340 333 335 335 335 336 336
343 343 343 344 347 347 348 346 348 345 347 349 349 349 349 349 348 347 341 339 339 339 340 339 340 342 347 346 344 345 345 343 340 340 340 332 335 329 332 331 338 335 336
343 342 342 345 347 346 348 347 347 347 348 347 344 347 349 349 349 348 347 346 346 344 346 346 344 347 347 347 347 345 344 345 343 340 337 331 336 336 327 329 337 329 331
343 341 343 346 347 347 347 346 346 346 347 347 348 340 347 349 351 349 348 346 348 349 344 348 347 349 348 347 347 344 345 343 342 341 332 331 329 331 332 333 327 322 326
341 341 344 346 346 347 347 346 346 347 347 347 347 346 350 352 346 349 349 351 350 349 348 349 348 347 348 347 347 347 345 344 341 340 343 330 327 333 329 330 327 324 323
342 341 344 346 345 345 347 346 348 349 349 348 350 349 345 353 346 349 348 351 350 349 348 349 346 349 347 347 346 347 346 346 344 342 342 338 334 331 332 328 330 327 325
342 342 344 345 344 343 344 337 347 349 349 350 351 344 347 348 345 345 350 351 350 349 345 346 342 348 344 346 346 345 345 347 344 344 342 343 341 334 334 335 334 340 338
342 343 344 343 342 340 345 337 347 348 348 349 349 351 347 346 345 345 348 349 345 348 349 348 347 345 343 345 344 343 343 344 345 345 344 344 343 346 339 334 333 334 333
343 344 344 343 341 343 340 340 345 346 348 349 349 350 346 345 344 351 346 346 344 346 346 345 345 346 344 342 342 342 344 343 343 341 344 345 343 342 344 340 335 332 331
344 344 343 343 342 342 343 337 345 346 348 349 349 349 346 348 342 349 345 346 347 346 346 346 345 344 343 340 339 341 343 343 342 342 343 342 342 342 341 342 345 346 337
344 344 342 342 342 339 340 342 345 346 347 350 350 345 345 345 343 342 351 345 343 347 350 344 345 342 342 342 339 341 340 342 342 341 340 341 342 344 343 342 343 343 344
344 344 343 339 335 330 340 343 345 347 348 349 350 346 346 343 343 346 348 347 346 346 344 346 347 346 343 341 340 339 339 337 339 340 341 341 342 343 343 344 343 333 337
344 345 344 327 326 326 340 341 346 349 350 350 349 348 346 343 344 344 344 347 346 344 348 349 348 348 343 343 340 341 336 339 340 341 343 342 342 343 343 344 344 343 336
346 346 346 341 326 326 327 342 346 346 345 345 347 348 348 344 345 347 344 343 343 351 345 347 348 349 345 342 340 340 340 340 342 343 341 343 344 343 343 343 343 344 338
348 346 347 345 331 328 327 337 345 344 342 345 346 349 349 349 344 344 343 343 343 350 347 345 343 345 347 346 340 339 340 342 342 343 342 342 342 343 343 344 343 343 344
349 347 346 347 333 329 328 328 332 341 343 347 347 346 347 348 349 345 348 342 341 348 345 351 350 343 349 346 346 341 340 341 342 344 344 344 343 343 342 342 343 344 344
Wind_Speed
22 24 25 22 20 20 19 17 14 13 14 13 10 9 8 6 5 5 5 5 5 5 4 3 3 4 5 5 7 8 9 11 12 13 12 12 13 13 15 18 16 12 14
23 22 24 21 20 18 16 15 14 13 12 13 12 9 7 6 6 6 7 6 5 6 6 5 4 4 5 5 7 7 8 9 11 10 12 12 12 12 14 16 13 14 14
23 21 21 19 18 17 15 14 12 11 11 11 11 10 9 8 8 8 7 7 8 7 7 6 7 8 8 7 9 9 9 10 11 14 15 9 10 12 12 11 12 13 13
23 20 18 19 17 15 14 13 13 11 11 10 10 10 10 10 9 8 9 9 7 7 9 9 10 12 10 12 12 10 9 10 13 14 10 13 9 10 10 11 12 13 13
23 20 20 18 16 14 14 14 13 12 11 11 12 11 12 10 11 11 12 9 9 9 10 11 12 14 15 14 15 13 11 10 13 12 11 11 9 9 11 11 11 13 12
22 19 22 18 15 14 14 14 13 13 12 12 13 14 13 12 12 12 10 10 9 9 10 12 13 12 12 13 12 12 11 12 15 9 9 10 9 9 9 10 10 11 10
23 19 20 17 15 14 13 12 12 12 11 12 12 13 13 13 13 12 10 9 9 10 11 13 14 14 14 12 11 10 11 14 9 10 9 9 9 10 9 10 10 10 9
23 20 18 16 15 14 12 14 13 13 12 13 13 12 12 13 12 11 10 9 9 10 10 10 12 12 12 11 12 12 11 16 11 9 11 8 9 9 9 9 9 9 10
22 20 18 14 14 13 13 14 13 14 13 12 12 13 14 14 13 12 12 12 11 10 10 10 11 11 10 10 12 12 12 16 10 9 10 7 10 9 9 9 8 9 9
21 19 18 16 13 12 12 14 12 12 14 13 13 15 14 13 13 12 11 11 11 11 11 10 11 11 11 11 11 12 13 16 8 11 8 7 9 9 8 7 7 7 9
21 19 16 16 14 13 11 12 12 13 12 13 13 15 15 10 10 9 9 10 10 11 12 12 11 11 12 10 10 11 15 7 9 10 5 9 9 8 8 7 7 7 8
23 20 17 16 15 14 11 12 10 12 10 10 10 11 10 11 11 8 9 9 9 10 11 11 11 14 11 8 7 11 8 8 7 9 6 10 9 8 7 7 8 7 6
24 21 18 17 16 14 13 12 11 11 10 10 11 11 10 8 7 6 6 6 6 10 7 7 8 6 6 6 6 7 7 8 7 7 6 8 8 8 8 7 6 5 4
25 22 19 17 17 15 13 12 12 11 10 9 9 10 8 7 8 7 7 5 6 5 8 7 5 6 6 7 7 7 8 7 6 5 5 6 6 6 6 6 5 5 4
25 22 20 18 17 15 15 12 12 11 11 9 8 8 7 7 6 5 5 4 5 5 6 7 6 5 5 5 5 7 6 7 7 6 2 5 5 5 5 4 4 4 4
26 23 21 19 18 16 14 14 13 13 11 11 8 6 7 5 4 6 4 5 5 6 6 6 6 5 5 5 5 5 6 5 6 8 4 3 5 5 5 5 4 4 4
25 23 22 20 18 17 15 17 13 11 10 9 8 7 6 6 4 7 5 5 4 5 6 5 7 7 5 5 7 5 4 6 4 6 7 5 4 6 3 2 1 1 0
25 24 22 20 19 19 16 18 13 11 11 10 8 6 6 5 5 5 5 5 6 6 5 5 7 8 6 6 6 6 6 5 5 5 5 5 4 0 4 3 0 0 1
25 24 24 22 20 19 18 18 15 14 12 10 8 6 4 4 5 6 5 5 6 7 6 6 7 6 6 4 5 5 5 4 5 3 3 3 2 2 2 6 2 1 1
26 24 24 22 21 21 17 20 15 14 12 10 8 6 6 3 6 6 3 6 6 7 7 8 8 6 4 5 5 5 4 4 4 3 2 2 1 1 1 2 3 5 4
27 26 26 25 23 23 21 19 17 16 13 10 8 10 7 5 4 5 2 5 7 8 6 7 6 5 4 5 6 5 4 3 4 4 3 2 2 1 2 2 1 2 7
30 28 28 28 27 27 21 20 17 15 13 10 8 10 8 8 5 4 5 3 4 7 6 6 6 5 3 6 3 3 7 5 4 3 2 2 2 2 2 3 2 3 3
33 32 30 34 32 30 22 21 18 15 13 13 10 10 9 9 7 6 4 4 3 5 5 5 4 6 4 3 7 1 4 5 4 2 2 2 3 1 2 4 4 3 3
36 32 31 32 35 34 32 23 22 19 17 14 12 11 10 10 7 7 6 4 3 3 4 5 4 5 7 3 4 5 1 3 2 7 3 1 1 2 4 3 5 6 5
35 35 33 32 37 36 35 29 25 23 18 15 14 13 14 12 10 8 6 6 4 3 5 5 5 7 5 5 4 5 3 1 0 1 2 2 2 2 4 5 5 6 8
35 33 34 33 40 40 39 37 33 26 23 19 17 15 13 12 11 13 10 8 8 6 5 5 5 4 7 7 6 6 4 3 1 2 3 3 3 4 4 6 7 8 8
Wind_Direction
144 146 145 148 144 141 144 145 141 138 135 152 160 154 149 135 124 119 118 112 103 108 117 133 149 136 126 126 105 95 90 91 96 95 91 89 92 90 95 85 75 94 96
145 148 148 147 143 144 142 143 145 146 146 149 152 157 155 150 139 129 114 102 96 93 91 105 132 149 150 132 124 118 105 105 113 97 82 78 91 95 103 115 124 98 96
145 149 147 149 145 141 139 137 134 138 142 144 152 156 149 141 129 120 115 110 100 79 67 87 107 113 119 111 124 116 114 113 109 98 87 93 93 90 94 100 97 96 96
144 144 147 147 143 139 134 132 123 127 127 131 135 137 136 136 131 117 113 102 90 73 74 82 99 109 107 106 111 113 112 106 108 89 86 93 90 95 94 95 98 94 94
144 149 153 145 139 136 136 134 130 124 123 128 128 133 128 132 118 116 104 107 102 91 91 84 96 101 105 105 102 106 105 110 102 88 113 98 89 96 89 88 87 94 102
147 149 147 143 139 139 136 130 128 128 122 119 124 127 128 126 118 112 114 106 102 97 95 92 101 101 103 103 102 99 93 104 84 102 98 93 109 98 95 103 101 100 98
148 153 147 144 142 139 138 135 130 130 127 125 124 124 124 126 121 116 108 104 100 98 100 90 105 94 103 97 97 97 90 103 101 101 100 93 98 96 99 99 98 95 89
150 147 149 147 146 143 137 134 128 122 120 123 123 122 122 124 120 113 107 102 97 97 110 105 104 101 99 93 96 97 92 93 89 98 94 103 94 99 103 102 101 93 97
151 151 146 147 146 140 138 137 129 126 127 127 126 123 121 121 117 112 101 92 90 97 102 113 107 101 99 93 94 88 83 99 100 102 78 81 92 96 99 102 103 99 106
157 153 149 149 148 135 133 138 133 131 129 129 131 125 120 115 111 102 93 95 92 92 102 116 113 99 105 106 101 86 81 77 97 89 85 111 95 98 97 100 105 110 108
163 160 157 152 153 149 144 144 138 143 132 131 128 122 96 109 105 95 123 104 102 100 106 116 112 102 96 99 94 86 81 101 88 105 115 105 107 89 99 103 107 104 102
169 167 165 159 162 149 150 136 141 131 135 142 140 131 132 128 135 129 110 111 109 104 105 114 114 98 94 98 87 71 93 94 97 100 121 101 105 96 101 104 105 89 94
170 169 172 166 163 154 163 148 146 146 152 150 142 127 139 121 112 128 106 111 111 106 99 101 100 85 94 99 95 104 97 89 82 103 120 105 111 106 100 105 102 91 103
174 172 174 172 166 163 161 151 156 157 155 151 159 141 140 120 126 130 127 128 108 136 138 122 125 126 108 101 103 101 93 88 101 110 110 106 110 113 108 107 99 100 118
176 177 177 176 172 172 161 166 159 159 148 162 155 155 151 144 149 141 155 138 134 143 145 129 128 116 105 102 114 109 105 93 93 109 112 95 104 116 112 111 103 100 102
177 182 181 180 179 176 170 171 168 154 170 152 159 180 169 139 154 157 143 135 131 141 140 147 136 121 124 118 112 122 115 109 99 99 112 68 81 86 92 85 106 112 97
181 183 186 183 185 181 180 173 168 173 166 166 165 167 171 134 145 133 148 132 148 160 149 148 154 130 123 108 111 111 126 115 92 95 93 111 23 58 76 95 106 149 238
184 188 187 185 190 186 186 179 175 175 171 167 163 156 156 150 144 131 129 154 165 128 143 161 153 147 131 119 107 107 120 123 112 112 102 103 119 160 15 18 26 188 340
186 189 189 189 192 191 193 184 182 188 169 170 173 170 204 156 142 126 137 150 150 130 139 132 142 148 132 132 145 126 116 118 107 122 129 123 113 115 216 304 356 36 5
190 191 190 193 192 192 195 190 190 192 187 188 193 193 195 167 160 137 114 155 156 147 140 138 141 152 155 137 143 145 130 124 135 136 158 118 172 159 262 245 325 330 335
194 193 194 194 197 194 194 193 193 193 198 199 200 204 196 187 157 159 151 135 155 148 154 154 143 138 137 145 133 129 140 132 129 149 141 146 243 358 263 283 238 257 306
197 198 197 199 200 198 197 194 197 197 204 199 204 197 200 202 192 179 161 160 200 161 159 176 165 161 153 149 157 146 146 141 151 163 180 200 231 255 293 301 268 316 270
201 200 200 202 204 203 196 196 198 197 197 204 205 202 206 206 211 212 206 195 212 175 174 183 190 190 171 186 184 168 161 116 162 165 220 225 243 260 254 266 262 282 341
204 203 202 204 206 206 205 201 201 202 205 208 208 201 199 203 213 226 241 236 165 169 228 188 185 175 158 166 164 193 152 113 20 140 120 181 222 250 263 265 272 277 324
203 205 204 205 208 208 209 202 209 204 214 213 209 210 207 220 225 230 233 233 238 208 201 203 189 170 181 171 169 167 166 177 322 315 115 103 332 309 283 282 267 269 272
206 205 205 206 210 210 213 212 215 212 206 210 211 214 216 222 230 235 235 245 252 220 240 205 195 211 173 188 194 204 208 241 235 246 261 279 289 284 288 278 267 261 263